• Join FlightAware (Why Join?)
  • Login
  • US Flag GB Flag 
14:22 EDT


 

Airport Tracker/Info


-or-


 

Live Flight TrackerFlight Track Log ✈ DAL268 ✈ 16-May-2013 ✈ KJFK - LLBG / TLV

Flight Track Log - Related Links

Times and Time Zones

All times are in EDT time to prevent confusion due to time zone crossing. See the DAL268 flight status page for this flight to view local times or setup timezone preferences in your user account.

Time Position Orientation Groundspeed Altitude Reporting Facility
EDT Latitude Longitude Course Direction KTS MPH feet Rate Location/Type
23:48 40.6430 -73.8210 299° West 181 208 600  Level FlightAware
23:48 40.6480 -73.8370 292° West 185 213 1,000 1,500 Climbing FlightAware
23:48 40.6390 -73.8650 247° West 219 252 1,600 1,200 Climbing FlightAware
23:49 40.6270 -73.8770 217° Southwest 237 273 1,800 1,020 Climbing FlightAware
23:49 40.6020 -73.8840 192° South 264 304 2,300 1,080 Climbing FlightAware
23:50 40.5660 -73.8600 153° Southeast 291 335 2,800 1,440 Climbing FlightAware
23:50 40.5570 -73.8340 114° Southeast 294 338 3,400 1,980 Climbing FlightAware
23:50 40.5590 -73.7800 87° East 300 345 4,300 2,040 Climbing FlightAware
23:51 40.5630 -73.7360 83° East 309 356 5,300 2,280 Climbing FlightAware
23:51 40.5627 -73.7204 91° East 314 361 5,500 2,520 Climbing FlightAware ADS-B
23:51 40.5618 -73.6912 92° East 316 364 6,200 2,880 Climbing FlightAware ADS-B
23:51 40.5615 -73.6683 91° East 315 362 6,800 2,640 Climbing FlightAware ADS-B
23:52 40.5617 -73.6360 90° East 319 367 7,500 2,280 Climbing FlightAware ADS-B
23:52 40.5619 -73.6025 90° East 327 376 8,100 2,280 Climbing FlightAware ADS-B
23:52 40.5617 -73.5686 90° East 331 381 8,800 2,400 Climbing FlightAware ADS-B
23:52 40.5606 -73.5366 93° East 335 386 9,400 2,100 Climbing FlightAware ADS-B
23:53 40.5607 -73.5100 90° East 339 390 9,800 1,980 Climbing FlightAware ADS-B
23:53 40.5623 -73.4871 85° East 345 397 10,200 1,440 Climbing FlightAware ADS-B
23:53 40.5705 -73.4247 80° East 368 423 10,800 1,260 Climbing FlightAware ADS-B
23:54 40.5784 -73.3522 82° East 396 456 11,500 1,260 Climbing FlightAware ADS-B
23:54 40.5868 -73.2785 81° East 421 484 12,100 1,440 Climbing FlightAware ADS-B
23:55 40.5959 -73.1972 82° East 433 498 13,000 1,980 Climbing FlightAware ADS-B
23:55 40.6045 -73.1179 82° East 441 507 14,200 2,220 Climbing FlightAware ADS-B
23:56 40.6138 -73.0351 82° East 451 519 15,300 1,920 Climbing FlightAware ADS-B
23:56 40.6232 -72.9506 82° East 458 527 16,200 2,520 Climbing FlightAware ADS-B
23:57 40.6321 -72.8658 82° East 447 514 17,900 2,760 Climbing FlightAware ADS-B
23:57 40.6407 -72.7831 82° East 446 513 19,100 1,500 Climbing FlightAware ADS-B
23:58 40.6495 -72.6984 82° East 470 541 19,500 720 Climbing FlightAware ADS-B
23:59 40.6594 -72.6021 82° East 492 566 19,900 1,200 Climbing FlightAware ADS-B
00:00 40.6800 -72.3910 83° East 509 586 21,600 1,440 Climbing FlightAware
00:00 40.6930 -72.2680 82° East 516 594 22,600 960 Climbing FlightAware
00:01 40.7050 -72.1530 82° East 518 596 22,900 1,380 Climbing FlightAware
00:01 40.7085 -72.1110 84° East 526 605 23,700 2,340 Climbing FlightAware ADS-B
00:02 40.7183 -72.0129 82° East 533 613 24,400 1,380 Climbing FlightAware ADS-B
00:02 40.7288 -71.9035 83° East 540 621 25,200 1,080 Climbing FlightAware ADS-B
00:03 40.7382 -71.8038 83° East 550 633 25,600 1,080 Climbing FlightAware ADS-B
00:03 40.7494 -71.6841 83° East 553 636 26,400 1,020 Climbing FlightAware ADS-B
00:04 40.7647 -71.5179 83° East 564 649 27,100 900 Climbing FlightAware ADS-B
00:05 40.7772 -71.3809 83° East 572 658 27,800 780 Climbing FlightAware ADS-B
00:06 40.7989 -71.2569 83° East 582 670 28,300 900 Climbing New York Center
00:07 40.8161 -71.0486 84° East 577 664 29,500 1,320 Climbing New York Center
00:08 40.8417 -70.8211 81° East 570 656 30,900 1,260 Climbing New York Center
00:09 40.8583 -70.6128 84° East 570 656 32,100 1,020 Climbing New York Center
00:10 40.8767 -70.4042 83° East 570 656 33,000 420 Climbing New York Center
00:11 40.8947 -70.1956 83° East 576 663 33,000  Level New York Center
00:12 40.9122 -69.9814 84° East 576 663 33,000  Level New York Center
00:13 40.9294 -69.7725 84° East 576 663 33,000  Level New York Center
00:14 40.9444 -69.5608 85° East 576 663 33,000  Level New York Center
00:15 40.9589 -69.3572 85° East 576 663 33,000  Level New York Center
00:16 40.9750 -69.1481 84° East 571 657 33,000  Level New York Center
00:17 40.9928 -68.9361 84° East 571 657 33,000  Level New York Center
00:18 41.0064 -68.7322 85° East 571 657 33,000  Level New York Center
00:19 41.0214 -68.5200 85° East 571 657 33,000  Level New York Center
00:20 41.0381 -68.3106 84° East 576 663 33,000  Level New York Center
00:21 41.0506 -68.1011 85° East 571 657 33,000  Level New York Center
00:22 41.0625 -67.8969 85° East 571 657 33,000  Level New York Center
00:23 41.0761 -67.6847 85° East 571 657 33,000  Level New York Center
00:24 41.0872 -67.4778 86° East 571 657 33,000  Level New York Center
00:25 41.1000 -67.2678 85° East 571 657 33,000 -480 Level New York Center
00:26 41.1125 -67.0581 85° East 571 657 32,100 -480 Descending New York Center
00:27 41.1167 -67.0000 78° East 581 669 32,000 -60 Descending New York Oceanic (ODAPS)
00:33 41.3393 -65.5318 79° East 581 669 32,000  Level FlightAware Transoceanic
00:34 41.3696 -65.3213 79° East 581 669 32,000  Level FlightAware Transoceanic
00:35 41.3995 -65.1105 79° East 581 669 32,000  Level FlightAware Transoceanic
00:36 41.4290 -64.8996 80° East 581 669 32,000  Level FlightAware Transoceanic
00:37 41.4582 -64.6885 80° East 581 669 32,000  Level FlightAware Transoceanic
00:38 41.4869 -64.4771 80° East 581 669 32,000  Level FlightAware Transoceanic
00:39 41.5153 -64.2656 80° East 581 669 32,000  Level FlightAware Transoceanic
00:40 41.5432 -64.0539 80° East 581 669 32,000  Level FlightAware Transoceanic
00:41 41.5708 -63.8421 80° East 581 669 32,000  Level FlightAware Transoceanic
00:42 41.5980 -63.6300 80° East 581 669 32,000  Level FlightAware Transoceanic
00:43 41.6248 -63.4178 80° East 581 669 32,000  Level FlightAware Transoceanic
00:44 41.6512 -63.2054 81° East 581 669 32,000  Level FlightAware Transoceanic
00:45 41.6772 -62.9929 81° East 581 669 32,000  Level FlightAware Transoceanic
00:46 41.7028 -62.7801 81° East 581 669 32,000  Level FlightAware Transoceanic
00:47 41.7281 -62.5672 81° East 581 669 32,000  Level FlightAware Transoceanic
00:48 41.7529 -62.3541 81° East 581 669 32,000  Level FlightAware Transoceanic
00:49 41.7774 -62.1409 81° East 581 669 32,000  Level FlightAware Transoceanic
00:50 41.8014 -61.9275 81° East 581 669 32,000  Level FlightAware Transoceanic
00:51 41.8251 -61.7139 82° East 581 669 32,000  Level FlightAware Transoceanic
00:52 41.8483 -61.5002 82° East 581 669 32,000  Level FlightAware Transoceanic
00:53 41.8712 -61.2863 82° East 581 669 32,000  Level FlightAware Transoceanic
00:54 41.8937 -61.0723 82° East 581 669 32,000  Level FlightAware Transoceanic
00:55 41.9157 -60.8581 82° East 581 669 32,000  Level FlightAware Transoceanic
00:56 41.9374 -60.6438 82° East 581 669 32,000  Level FlightAware Transoceanic
00:57 41.9587 -60.4294 82° East 581 669 32,000  Level FlightAware Transoceanic
00:58 41.9795 -60.2147 83° East 581 669 32,000  Level FlightAware Transoceanic
00:59 42.0000 -60.0000 71° East 581 669 32,000  Level FlightAware Transoceanic
01:00 42.0504 -59.7986 71° East 581 669 32,000  Level FlightAware Transoceanic
01:01 42.1004 -59.5969 72° East 581 669 32,000  Level FlightAware Transoceanic
01:01 42.0000 -60.0000 71° East 582 670 32,000  Level New York Oceanic (ODAPS)
01:02 42.1500 -59.3949 72° East 581 669 32,000  Level FlightAware Transoceanic
01:03 42.1993 -59.1926 72° East 581 669 32,000  Level FlightAware Transoceanic
01:04 42.2482 -58.9899 72° East 581 669 32,000  Level FlightAware Transoceanic
01:05 42.2968 -58.7869 72° East 581 669 32,000  Level FlightAware Transoceanic
01:06 42.3451 -58.5837 72° East 581 669 32,000  Level FlightAware Transoceanic
01:07 42.3929 -58.3801 72° East 581 669 32,000  Level FlightAware Transoceanic
01:08 42.4010 -58.3454 72° East 582 670 32,000  Level FlightAware Transoceanic
01:09 42.4495 -58.1371 73° East 582 670 32,000  Level FlightAware Transoceanic
01:10 42.4976 -57.9285 73° East 582 670 32,000  Level FlightAware Transoceanic
01:11 42.5452 -57.7196 73° East 582 670 32,000  Level FlightAware Transoceanic
01:12 42.5926 -57.5103 73° East 582 670 32,000  Level FlightAware Transoceanic
01:13 42.6395 -57.3008 73° East 582 670 32,000  Level FlightAware Transoceanic
01:14 42.6860 -57.0909 73° East 582 670 32,000  Level FlightAware Transoceanic
01:15 42.7322 -56.8807 73° East 582 670 32,000  Level FlightAware Transoceanic
01:16 42.7780 -56.6702 74° East 582 670 32,000  Level FlightAware Transoceanic
01:17 42.8234 -56.4594 74° East 582 670 32,000  Level FlightAware Transoceanic
01:18 42.8684 -56.2482 74° East 582 670 32,000  Level FlightAware Transoceanic
01:19 42.9130 -56.0368 74° East 582 670 32,000  Level FlightAware Transoceanic
01:20 42.9572 -55.8251 74° East 582 670 32,000  Level FlightAware Transoceanic
01:21 43.0011 -55.6130 74° East 582 670 32,000  Level FlightAware Transoceanic
01:22 43.0445 -55.4007 74° East 582 670 32,000  Level FlightAware Transoceanic
01:23 43.0876 -55.1880 75° East 582 670 32,000  Level FlightAware Transoceanic
01:24 43.1302 -54.9751 75° East 582 670 32,000  Level FlightAware Transoceanic
01:25 43.1725 -54.7618 75° East 582 670 32,000  Level FlightAware Transoceanic
01:26 43.2144 -54.5483 75° East 582 670 32,000  Level FlightAware Transoceanic
01:27 43.2558 -54.3345 75° East 582 670 32,000  Level FlightAware Transoceanic
01:28 43.2969 -54.1204 75° East 582 670 32,000  Level FlightAware Transoceanic
01:29 43.3376 -53.9060 75° East 582 670 32,000  Level FlightAware Transoceanic
01:30 43.3778 -53.6913 76° East 582 670 32,000  Level FlightAware Transoceanic
01:31 43.4177 -53.4763 76° East 582 670 32,000  Level FlightAware Transoceanic
01:32 43.4571 -53.2611 76° East 582 670 32,000  Level FlightAware Transoceanic
01:33 43.4962 -53.0456 76° East 582 670 32,000  Level FlightAware Transoceanic
01:34 43.5349 -52.8297 76° East 582 670 32,000  Level FlightAware Transoceanic
01:35 43.5731 -52.6137 76° East 582 670 32,000  Level FlightAware Transoceanic
01:36 43.6110 -52.3973 76° East 582 670 32,000  Level FlightAware Transoceanic
01:37 43.6484 -52.1807 77° East 582 670 32,000  Level FlightAware Transoceanic
01:38 43.6854 -51.9638 77° East 582 670 32,000  Level FlightAware Transoceanic
01:39 43.7220 -51.7466 77° East 582 670 32,000  Level FlightAware Transoceanic
01:40 43.7582 -51.5292 77° East 582 670 32,000  Level FlightAware Transoceanic
01:41 43.7940 -51.3115 77° East 582 670 32,000  Level FlightAware Transoceanic
01:42 43.8294 -51.0936 77° East 582 670 32,000  Level FlightAware Transoceanic
01:43 43.8643 -50.8753 78° East 582 670 32,000  Level FlightAware Transoceanic
01:44 43.8989 -50.6569 78° East 582 670 32,000  Level FlightAware Transoceanic
01:45 43.9330 -50.4382 78° East 582 670 32,000  Level FlightAware Transoceanic
01:46 43.9667 -50.2192 78° East 582 670 32,000  Level FlightAware Transoceanic
01:47 44.0000 -50.0000 63° Northeast 582 670 32,000  Level FlightAware Transoceanic
01:48 44.0669 -49.8143 63° Northeast 582 670 32,000  Level FlightAware Transoceanic
01:49 44.1336 -49.6282 64° Northeast 582 670 32,000  Level FlightAware Transoceanic
01:50 44.1999 -49.4416 64° Northeast 582 670 32,000 660 Level FlightAware Transoceanic
01:50 44.0000 -50.0000 63° Northeast 550 633 33,000  Climbing New York Oceanic (ODAPS)
01:51 44.2659 -49.2546 64° Northeast 582 670 32,000 -660 Descending FlightAware Transoceanic
01:52 44.3316 -49.0672 64° Northeast 582 670 32,000  Level FlightAware Transoceanic
01:53 44.3970 -48.8794 64° Northeast 582 670 32,000  Level FlightAware Transoceanic
01:54 44.4621 -48.6912 64° Northeast 582 670 32,000  Level FlightAware Transoceanic
01:55 44.5269 -48.5025 64° Northeast 582 670 32,000 480 Level FlightAware Transoceanic
01:56 44.5373 -48.4723 64° Northeast 550 633 33,000 480 Climbing FlightAware Transoceanic
01:57 44.6030 -48.2794 65° Northeast 550 633 33,000  Level FlightAware Transoceanic
01:58 44.6684 -48.0860 65° Northeast 550 633 33,000  Level FlightAware Transoceanic
01:59 44.7334 -47.8923 65° Northeast 550 633 33,000  Level FlightAware Transoceanic
02:00 44.7981 -47.6980 65° Northeast 550 633 33,000  Level FlightAware Transoceanic
02:01 44.8626 -47.5034 65° Northeast 550 633 33,000  Level FlightAware Transoceanic
02:02 44.9266 -47.3083 65° Northeast 550 633 33,000  Level FlightAware Transoceanic
02:03 44.9904 -47.1127 65° Northeast 550 633 33,000  Level FlightAware Transoceanic
02:04 45.0538 -46.9168 65° Northeast 550 633 33,000  Level FlightAware Transoceanic
02:05 45.1168 -46.7203 66° East 550 633 33,000  Level FlightAware Transoceanic
02:06 45.1796 -46.5235 66° East 550 633 33,000  Level FlightAware Transoceanic
02:07 45.2420 -46.3262 66° East 550 633 33,000  Level FlightAware Transoceanic
02:08 45.3040 -46.1286 66° East 550 633 33,000  Level FlightAware Transoceanic
02:09 45.3657 -45.9304 66° East 550 633 33,000  Level FlightAware Transoceanic
02:10 45.4271 -45.7318 66° East 550 633 33,000  Level FlightAware Transoceanic
02:11 45.4881 -45.5329 66° East 550 633 33,000  Level FlightAware Transoceanic
02:12 45.5488 -45.3334 67° East 550 633 33,000  Level FlightAware Transoceanic
02:13 45.6091 -45.1336 67° East 550 633 33,000  Level FlightAware Transoceanic
02:14 45.6691 -44.9333 67° East 550 633 33,000  Level FlightAware Transoceanic
02:15 45.7287 -44.7326 67° East 550 633 33,000  Level FlightAware Transoceanic
02:16 45.7880 -44.5314 67° East 550 633 33,000  Level FlightAware Transoceanic
02:17 45.8469 -44.3299 67° East 550 633 33,000  Level FlightAware Transoceanic
02:18 45.9055 -44.1279 67° East 550 633 33,000  Level FlightAware Transoceanic
02:19 45.9637 -43.9254 68° East 550 633 33,000  Level FlightAware Transoceanic
02:20 46.0216 -43.7226 68° East 550 633 33,000  Level FlightAware Transoceanic
02:21 46.0790 -43.5193 68° East 550 633 33,000  Level FlightAware Transoceanic
02:22 46.1362 -43.3157 68° East 550 633 33,000  Level FlightAware Transoceanic
02:23 46.1930 -43.1115 68° East 550 633 33,000  Level FlightAware Transoceanic
02:24 46.2494 -42.9070 68° East 550 633 33,000  Level FlightAware Transoceanic
02:25 46.3054 -42.7020 68° East 550 633 33,000  Level FlightAware Transoceanic
02:26 46.3611 -42.4967 69° East 550 633 33,000  Level FlightAware Transoceanic
02:27 46.4164 -42.2909 69° East 550 633 33,000  Level FlightAware Transoceanic
02:28 46.4713 -42.0847 69° East 550 633 33,000  Level FlightAware Transoceanic
02:29 46.5259 -41.8781 69° East 550 633 33,000  Level FlightAware Transoceanic
02:30 46.5801 -41.6710 69° East 550 633 33,000  Level FlightAware Transoceanic
02:31 46.6339 -41.4636 69° East 550 633 33,000  Level FlightAware Transoceanic
02:32 46.6873 -41.2557 70° East 550 633 33,000  Level FlightAware Transoceanic
02:33 46.7404 -41.0475 70° East 550 633 33,000  Level FlightAware Transoceanic
02:34 46.7931 -40.8388 70° East 550 633 33,000  Level FlightAware Transoceanic
02:35 46.8454 -40.6297 70° East 550 633 33,000  Level FlightAware Transoceanic
02:36 46.8973 -40.4202 70° East 550 633 33,000  Level FlightAware Transoceanic
02:37 46.9488 -40.2103 70° East 550 633 33,000  Level FlightAware Transoceanic
02:38 47.0000 -40.0000 86° East 550 633 33,000  Level FlightAware Transoceanic
02:39 47.0093 -39.7832 86° East 550 633 33,000  Level FlightAware Transoceanic
02:40 47.0181 -39.5662 87° East 550 633 33,000  Level FlightAware Transoceanic
02:41 47.0265 -39.3493 87° East 550 633 33,000  Level FlightAware Transoceanic
02:42 47.0346 -39.1322 87° East 550 633 33,000  Level FlightAware Transoceanic
02:42 47.0000 -40.0000 86° East 533 613 33,000  Level ETMS Enhanced Traffic Management System
02:43 47.0422 -38.9151 87° East 550 633 33,000  Level FlightAware Transoceanic
02:44 47.0494 -38.6979 87° East 550 633 33,000  Level FlightAware Transoceanic
02:45 47.0562 -38.4807 87° East 550 633 33,000  Level FlightAware Transoceanic
02:46 47.0626 -38.2634 88° East 550 633 33,000  Level FlightAware Transoceanic
02:47 47.0685 -38.0461 88° East 550 633 33,000  Level FlightAware Transoceanic
02:48 47.0626 -38.2634 88° East 533 613 33,000  Level FlightAware Transoceanic
02:49 47.0685 -38.0461 88° East 533 613 33,000  Level FlightAware Transoceanic
02:50 47.0741 -37.8287 88° East 533 613 33,000  Level FlightAware Transoceanic
02:51 47.0793 -37.6113 88° East 533 613 33,000  Level FlightAware Transoceanic
02:52 47.0840 -37.3938 88° East 533 613 33,000  Level FlightAware Transoceanic
02:53 47.0883 -37.1763 88° East 533 613 33,000  Level FlightAware Transoceanic
02:54 47.0922 -36.9588 89° East 533 613 33,000  Level FlightAware Transoceanic
02:55 47.0957 -36.7412 89° East 533 613 33,000  Level FlightAware Transoceanic
02:56 47.0988 -36.5236 89° East 533 613 33,000  Level FlightAware Transoceanic
02:57 47.1015 -36.3060 89° East 533 613 33,000  Level FlightAware Transoceanic
02:58 47.1038 -36.0884 89° East 533 613 33,000  Level FlightAware Transoceanic
02:59 47.1056 -35.8707 89° East 533 613 33,000  Level FlightAware Transoceanic
03:00 47.1071 -35.6530 90° East 533 613 33,000  Level FlightAware Transoceanic
03:01 47.1081 -35.4354 90° East 533 613 33,000  Level FlightAware Transoceanic
03:02 47.1087 -35.2177 90° East 533 613 33,000  Level FlightAware Transoceanic
03:03 47.1089 -35.0000 90° East 533 613 33,000  Level FlightAware Transoceanic
03:04 47.1087 -34.7823 90° East 533 613 33,000  Level FlightAware Transoceanic
03:05 47.1081 -34.5646 90° East 533 613 33,000  Level FlightAware Transoceanic
03:06 47.1071 -34.3470 90° East 533 613 33,000  Level FlightAware Transoceanic
03:07 47.1056 -34.1293 91° East 533 613 33,000  Level FlightAware Transoceanic
03:08 47.1038 -33.9116 91° East 533 613 33,000  Level FlightAware Transoceanic
03:09 47.1015 -33.6940 91° East 533 613 33,000  Level FlightAware Transoceanic
03:10 47.0988 -33.4764 91° East 533 613 33,000  Level FlightAware Transoceanic
03:11 47.0957 -33.2588 91° East 533 613 33,000  Level FlightAware Transoceanic
03:12 47.0922 -33.0412 91° East 533 613 33,000  Level FlightAware Transoceanic
03:13 47.0883 -32.8237 92° East 533 613 33,000  Level FlightAware Transoceanic
03:14 47.0840 -32.6062 92° East 533 613 33,000  Level FlightAware Transoceanic
03:15 47.0793 -32.3887 92° East 533 613 33,000  Level FlightAware Transoceanic
03:16 47.0741 -32.1713 92° East 533 613 33,000  Level FlightAware Transoceanic
03:17 47.0685 -31.9539 92° East 533 613 33,000  Level FlightAware Transoceanic
03:18 47.0626 -31.7366 92° East 533 613 33,000  Level FlightAware Transoceanic
03:19 47.0562 -31.5193 93° East 533 613 33,000  Level FlightAware Transoceanic
03:20 47.0494 -31.3021 93° East 533 613 33,000  Level FlightAware Transoceanic
03:21 47.0422 -31.0849 93° East 533 613 33,000  Level FlightAware Transoceanic
03:22 47.0346 -30.8678 93° East 533 613 33,000  Level FlightAware Transoceanic
03:23 47.0265 -30.6507 93° East 533 613 33,000 180 Level FlightAware Transoceanic
03:24 47.0183 -30.4378 93° East  Level FlightAware Approximate
03:25 47.0096 -30.2249 93° East  Level FlightAware Approximate
03:26 47.0005 -30.0121 93° East  Level FlightAware Approximate
03:27 46.9910 -29.7994 94° East  Level FlightAware Approximate
03:28 46.9887 -29.8037 95° East  Level FlightAware Approximate
03:29 46.9762 -29.5914 95° East  Level FlightAware Approximate
03:30 46.9632 -29.3791 95° East  Level FlightAware Approximate
03:31 46.9498 -29.1670 95° East  Level FlightAware Approximate
03:31 47.0000 -30.0000 95° East 532 612 35,000  Level ETMS Enhanced Traffic Management System
03:32 46.9361 -28.9550 95° East  Level FlightAware Approximate
03:33 46.9220 -28.7434 96° East  Level FlightAware Approximate
03:34 46.9075 -28.5320 96° East  Level FlightAware Approximate
03:35 46.8926 -28.3207 96° East  Level FlightAware Approximate
03:36 46.8773 -28.1095 96° East  Level FlightAware Approximate
03:37 46.8616 -27.8984 96° East  Level FlightAware Approximate
03:38 46.9065 -28.5178 95° East  Level FlightAware Approximate
03:39 46.8916 -28.3064 96° East  Level FlightAware Approximate
03:40 46.8763 -28.0953 96° East  Level FlightAware Approximate
03:41 46.8605 -27.8842 96° East  Level FlightAware Approximate
03:42 46.8445 -27.6733 96° East  Level FlightAware Approximate
03:43 46.8280 -27.4624 96° East  Level FlightAware Approximate
03:44 46.8111 -27.2518 97° East  Level FlightAware Approximate
03:45 46.7939 -27.0412 97° East  Level FlightAware Approximate
03:46 46.7763 -26.8308 97° East  Level FlightAware Approximate
03:47 46.7583 -26.6205 97° East  Level FlightAware Approximate
03:48 46.7398 -26.4104 97° East  Level FlightAware Approximate
03:49 46.7211 -26.2004 97° East  Level FlightAware Approximate
03:50 46.7019 -25.9906 98° East  Level FlightAware Approximate
03:51 46.6823 -25.7809 98° East  Level FlightAware Approximate
03:52 46.6624 -25.5713 98° East  Level FlightAware Approximate
03:53 46.6421 -25.3620 98° East  Level FlightAware Approximate
03:54 46.6214 -25.1527 98° East  Level FlightAware Approximate
03:55 46.6003 -24.9437 98° East  Level FlightAware Approximate
03:56 46.5788 -24.7348 98° East  Level FlightAware Approximate
03:57 46.5570 -24.5261 99° East  Level FlightAware Approximate
03:58 46.5348 -24.3175 99° East  Level FlightAware Approximate
03:59 46.5122 -24.1091 99° East  Level FlightAware Approximate
04:00 46.4892 -23.9009 99° East  Level FlightAware Approximate
04:01 46.4659 -23.6929 99° East  Level FlightAware Approximate
04:02 46.4430 -23.4848 99° East  Level FlightAware Approximate
04:03 46.4197 -23.2769 99° East  Level FlightAware Approximate
04:04 46.3961 -23.0692 99° East  Level FlightAware Approximate
04:05 46.3721 -22.8617 99° East  Level FlightAware Approximate
04:06 46.3477 -22.6544 100° East  Level FlightAware Approximate
04:07 46.3229 -22.4472 100° East  Level FlightAware Approximate
04:08 46.2977 -22.2403 100° East  Level FlightAware Approximate
04:09 46.2722 -22.0335 100° East  Level FlightAware Approximate
04:10 46.2463 -21.8269 100° East  Level FlightAware Approximate
04:11 46.2201 -21.6206 100° East  Level FlightAware Approximate
04:12 46.1934 -21.4144 100° East  Level FlightAware Approximate
04:13 46.1664 -21.2084 101° East  Level FlightAware Approximate
04:14 46.1391 -21.0026 101° East  Level FlightAware Approximate
04:15 46.1113 -20.7971 101° East  Level FlightAware Approximate
04:16 46.0832 -20.5917 101° East  Level FlightAware Approximate
04:17 46.0547 -20.3865 101° East  Level FlightAware Approximate
04:18 46.0259 -20.1816 101° East  Level FlightAware Approximate
04:19 45.9953 -19.9774 107° East  Level FlightAware Approximate
04:20 45.9537 -19.7773 107° East  Level FlightAware Approximate
04:21 45.9118 -19.5775 107° East  Level FlightAware Approximate
04:22 45.8695 -19.3780 107° East  Level FlightAware Approximate
04:23 45.8269 -19.1788 107° East  Level FlightAware Approximate
04:24 45.7839 -18.9799 107° East  Level FlightAware Approximate
04:25 45.7406 -18.7813 107° East  Level FlightAware Approximate
04:26 45.6969 -18.5830 107° East  Level FlightAware Approximate
04:27 45.6530 -18.3851 108° East  Level FlightAware Approximate
04:28 45.6086 -18.1874 108° East  Level FlightAware Approximate
04:29 45.5639 -17.9901 108° East  Level FlightAware Approximate
04:30 45.5189 -17.7931 108° East  Level FlightAware Approximate
04:31 45.4738 -17.5963 108° East  Level FlightAware Approximate
04:32 45.4283 -17.3998 108° East  Level FlightAware Approximate
04:33 45.3825 -17.2036 108° East  Level FlightAware Approximate
04:34 45.3363 -17.0077 108° East  Level FlightAware Approximate
04:35 45.2898 -16.8122 109° East  Level FlightAware Approximate
04:36 45.2430 -16.6170 109° East  Level FlightAware Approximate
04:37 45.1958 -16.4221 109° East  Level FlightAware Approximate
04:38 45.1484 -16.2275 109° East  Level FlightAware Approximate
04:39 45.1006 -16.0333 109° East  Level FlightAware Approximate
04:40 45.0524 -15.8394 109° East  Level FlightAware Approximate
04:41 45.0039 -15.6458 109° East  Level FlightAware Approximate
04:42 44.9551 -15.4525 110° East  Level FlightAware Approximate
04:43 44.9071 -15.2591 109° East  Level FlightAware Approximate
04:44 44.8595 -15.0655 109° East  Level FlightAware Approximate
04:45 44.8116 -14.8723 109° East  Level FlightAware Approximate
04:46 44.7634 -14.6794 109° East  Level FlightAware Approximate
04:47 44.7149 -14.4868 109° East  Level FlightAware Approximate
04:48 44.6660 -14.2945 110° East  Level FlightAware Approximate
04:49 44.6164 -14.1028 110° East  Level FlightAware Approximate
04:50 44.5654 -13.9120 111° Southeast  Level FlightAware Approximate
04:51 44.5141 -13.7215 111° Southeast  Level FlightAware Approximate
04:52 44.4624 -13.5313 111° Southeast  Level FlightAware Approximate
04:53 44.4105 -13.3415 111° Southeast  Level FlightAware Approximate
04:54 44.3582 -13.1520 111° Southeast  Level FlightAware Approximate
04:55 44.3057 -12.9629 111° Southeast  Level FlightAware Approximate
04:56 44.2528 -12.7741 111° Southeast  Level FlightAware Approximate
04:56 43.6760 -11.5150 111° Southeast 533 613 35,000  Level FlightAware
04:57 44.1996 -12.5856 111° Southeast  Level FlightAware Approximate
04:57 43.6320 -11.3180 107° East 533 613 35,000  Level FlightAware
04:58 43.6020 -11.1870 108° East 533 613 35,000  Level FlightAware
04:58 43.5690 -11.0430 108° East 533 613 35,000  Level FlightAware
04:59 43.5400 -10.9140 107° East 533 613 35,000  Level FlightAware
05:00 43.5100 -10.7840 108° East 534 615 35,000  Level FlightAware
05:00 43.4760 -10.6380 108° East 534 615 35,000  Level FlightAware
05:01 43.4460 -10.5100 108° East 534 615 35,000  Level FlightAware
05:02 43.4120 -10.3730 109° East 534 615 35,000 300 Level FlightAware
05:02 43.3760 -10.2350 110° East 535 616 35,500 720 Climbing FlightAware
05:03 43.3440 -10.1100 109° East 534 615 36,000 300 Climbing FlightAware
05:04 43.3070 -9.9630 109° East 531 611 36,000  Level FlightAware
05:05 43.2750 -9.8360 109° East 529 609 36,000  Level FlightAware
05:05 43.2410 -9.7000 109° East 527 606 36,000  Level FlightAware
05:06 43.2060 -9.5570 109° East 527 606 36,000  Level FlightAware
05:07 43.1720 -9.4170 108° East 525 604 36,000  Level FlightAware
05:07 43.1400 -9.2890 109° East 525 604 36,000  Level FlightAware
05:08 43.1090 -9.1630 109° East 527 606 36,000  Level FlightAware
05:09 43.0750 -9.0220 108° East 527 606 36,000  Level FlightAware
05:09 43.0440 -8.8970 109° East 527 606 36,000  Level FlightAware
05:10 43.0090 -8.7580 109° East 528 608 36,000  Level FlightAware
05:13 42.9136 -8.3244 93° East  Level FlightAware Approximate
05:14 42.9067 -8.1265 93° East  Level FlightAware Approximate
05:15 42.8995 -7.9286 93° East  Level FlightAware Approximate
05:16 42.8920 -7.7307 93° East  Level FlightAware Approximate
05:16 42.8820 -7.7040 93° East 531 611 36,000  Level FlightAware
05:16 42.8710 -7.5340 95° East 531 611 36,000  Level FlightAware
05:17 42.8620 -7.4020 95° East 531 611 36,000  Level FlightAware
05:18 42.8530 -7.2700 95° East 531 611 36,000  Level FlightAware
05:19 42.8420 -7.1180 96° East 531 611 36,000  Level FlightAware
05:19 42.8330 -6.9850 95° East 530 610 36,000  Level FlightAware
05:20 42.8220 -6.8370 96° East 529 609 36,000  Level FlightAware
05:21 42.8120 -6.7060 96° East 529 609 36,000  Level FlightAware
05:21 42.8010 -6.5610 96° East 528 608 36,000  Level FlightAware
05:22 42.7910 -6.4220 96° East 528 608 36,000  Level FlightAware
05:23 42.7790 -6.2720 96° East 528 608 36,000  Level FlightAware
05:23 42.7690 -6.1390 96° East 527 606 36,000  Level FlightAware
05:24 42.7590 -6.0080 96° East 527 606 36,000  Level FlightAware
05:25 42.7490 -5.8760 96° East 525 604 36,000  Level FlightAware
05:26 42.7370 -5.7340 97° East 526 605 36,000  Level FlightAware
05:26 42.7250 -5.5850 96° East 525 604 36,000  Level FlightAware
05:27 42.7140 -5.4500 96° East 525 604 36,000  Level FlightAware
05:28 42.7020 -5.3080 97° East 525 604 36,000  Level FlightAware
05:29 42.6880 -5.1390 96° East 525 604 36,000  Level FlightAware
05:29 42.6760 -4.9960 96° East 525 604 36,000  Level FlightAware
05:30 42.6580 -4.8470 99° East 524 603 36,000  Level FlightAware
05:31 42.6400 -4.7190 101° East 524 603 36,000  Level FlightAware
05:31 42.6200 -4.5890 102° East 523 602 36,000  Level FlightAware
05:32 42.5980 -4.4460 102° East 522 601 36,000  Level FlightAware
05:33 42.5800 -4.3240 101° East 522 601 36,000  Level FlightAware
05:33 42.5600 -4.1910 101° East 522 601 36,000  Level FlightAware
05:34 42.5380 -4.0450 102° East 521 600 36,000  Level FlightAware
05:35 42.5190 -3.9220 102° East 522 601 36,000  Level FlightAware
05:36 42.4980 -3.7860 102° East 523 602 36,000  Level FlightAware
05:36 42.4770 -3.6480 102° East 523 602 36,000  Level FlightAware
05:37 42.4620 -3.5510 102° East 523 602 36,000  Level FlightAware
05:37 42.4450 -3.4390 102° East 524 603 36,000  Level FlightAware
05:38 42.4240 -3.3090 102° East 525 604 36,000  Level FlightAware
05:39 42.4020 -3.1660 102° East 525 604 36,000  Level FlightAware
05:39 42.3840 -3.0530 102° East 525 604 36,000  Level FlightAware
05:40 42.3610 -2.9130 102° East 525 604 36,000  Level FlightAware
05:41 42.3410 -2.7850 102° East 526 605 36,000  Level FlightAware
05:42 42.3170 -2.6380 102° East 526 605 36,000  Level FlightAware
05:42 42.2970 -2.5170 103° East 525 604 36,000  Level FlightAware
05:43 42.2720 -2.3680 103° East 525 604 36,000  Level FlightAware
05:44 42.2500 -2.2360 103° East 525 604 36,000  Level FlightAware
05:44 42.2290 -2.1120 103° East 524 603 36,000  Level FlightAware
05:45 42.2060 -1.9830 103° East 524 603 36,000  Level FlightAware
05:46 42.1780 -1.8180 103° East 525 604 36,000  Level FlightAware
05:46 42.1560 -1.6910 103° East 525 604 36,000  Level FlightAware
05:47 42.1340 -1.5650 103° East 524 603 36,000  Level FlightAware
05:48 42.1080 -1.4220 104° East 526 605 36,000  Level FlightAware
05:49 42.0830 -1.2930 105° East 524 603 36,000  Level FlightAware
05:49 42.0600 -1.1840 106° East 524 603 36,000  Level FlightAware
05:50 42.0330 -1.0610 106° East 525 604 36,000  Level FlightAware
05:51 42.0020 -0.9140 106° East 527 606 36,000  Level FlightAware
05:51 41.9760 -0.7970 107° East 529 609 36,000  Level FlightAware
05:52 41.9450 -0.6500 106° East 531 611 36,000  Level FlightAware
05:53 41.9170 -0.5230 106° East 531 611 36,000  Level FlightAware
05:53 41.8890 -0.3940 106° East 532 612 36,000  Level FlightAware
05:54 41.8580 -0.2540 107° East 533 613 36,000  Level FlightAware
05:55 41.8300 -0.1290 107° East 534 615 36,000  Level FlightAware
05:55 41.7970 0.0200 106° East 534 615 36,000  Level FlightAware
05:56 41.7690 0.1470 106° East 534 615 36,000  Level FlightAware
05:57 41.7410 0.2730 107° East 535 616 36,000  Level FlightAware
05:58 41.7090 0.4120 107° East 534 615 36,000  Level FlightAware
05:58 41.6810 0.5390 106° East 534 615 36,000  Level FlightAware
05:59 41.6480 0.6830 107° East 536 617 36,000  Level FlightAware
06:00 41.6180 0.8100 107° East 534 615 36,000  Level FlightAware
06:00 41.5870 0.9460 107° East 535 616 36,000  Level FlightAware
06:01 41.5600 1.0630 107° East 534 615 36,000  Level FlightAware
06:02 41.5300 1.1960 107° East 534 615 36,000  Level FlightAware
06:02 41.4990 1.3280 107° East 534 615 36,000  Level FlightAware
06:03 41.4680 1.4630 107° East 534 615 36,000  Level FlightAware
06:04 41.4340 1.6090 107° East 535 616 36,000  Level FlightAware
06:05 41.4040 1.7350 108° East 536 617 36,000  Level FlightAware
06:05 41.3740 1.8600 108° East 536 617 36,000  Level FlightAware
06:06 41.3410 2.0000 107° East 537 618 36,000  Level FlightAware
06:07 41.3120 2.1260 107° East 538 619 36,000  Level FlightAware
06:07 41.2890 2.2570 103° East 541 623 36,000  Level FlightAware
06:08 41.2640 2.4060 103° East 540 621 36,000  Level FlightAware
06:09 41.2420 2.5340 103° East 541 623 36,000  Level FlightAware
06:09 41.2170 2.6780 103° East 542 624 36,000  Level FlightAware
06:10 41.1950 2.8070 103° East 543 625 36,000  Level FlightAware
06:11 41.1720 2.9370 103° East 543 625 36,000  Level FlightAware
06:12 41.1460 3.0880 103° East 543 625 36,000  Level FlightAware
06:12 41.1240 3.2130 103° East 543 625 36,000  Level FlightAware
06:13 41.1010 3.3470 103° East 544 626 36,000  Level FlightAware
06:14 41.0760 3.4920 103° East 545 627 36,000  Level FlightAware
06:14 41.0530 3.6210 103° East 545 627 36,000  Level FlightAware
06:15 41.0260 3.7710 103° East 545 627 36,000  Level FlightAware
06:16 41.0060 3.8870 103° East 544 626 36,000  Level FlightAware
06:16 40.9780 4.0400 104° East 545 627 36,000  Level FlightAware
06:17 40.9550 4.1680 103° East 548 631 36,000  Level FlightAware
06:18 40.9320 4.2920 104° East 549 632 36,000  Level FlightAware
06:19 40.9050 4.4460 103° East 548 631 36,000  Level FlightAware
06:19 40.8890 4.5760 99° East 552 635 36,000  Level FlightAware
06:20 40.8750 4.7210 97° East 552 635 36,000  Level FlightAware
06:21 40.8650 4.8270 97° East 552 635 36,000  Level FlightAware
06:21 40.8540 4.9410 97° East 552 635 36,000  Level FlightAware
06:24 40.7914 5.3743 101° East  Level Estimated
06:25 40.7636 5.5625 101° East  Level Estimated
06:26 40.7356 5.7505 101° East  Level Estimated
06:26 40.7410 6.0180 101° East 555 639 36,000  Level FlightAware
06:27 40.7072 5.9383 101° East  Level Estimated
06:27 40.7260 6.1550 98° East 558 642 36,000  Level FlightAware
06:28 40.7090 6.3060 98° East 562 647 36,000  Level FlightAware
06:28 40.6970 6.4090 99° East 562 647 36,000  Level FlightAware
06:29 40.6760 6.5920 99° East 559 643 36,000  Level FlightAware
06:30 40.6610 6.7310 98° East 560 644 36,000  Level FlightAware
06:31 40.6450 6.8670 99° East 560 644 36,000  Level FlightAware
06:31 40.6270 7.0210 99° East 559 643 36,000  Level FlightAware
06:32 40.6120 7.1540 98° East 558 642 36,000  Level FlightAware
06:33 40.5940 7.3050 99° East 558 642 36,000  Level FlightAware
06:33 40.5790 7.4370 98° East 559 643 36,000  Level FlightAware
06:34 40.5790 7.5750 90° East 567 652 36,000  Level FlightAware
06:35 40.5930 7.7310 83° East 568 654 36,000  Level FlightAware
06:36 40.6050 7.8660 83° East 569 655 36,000  Level FlightAware
06:36 40.6190 8.0240 83° East 570 656 36,000  Level FlightAware
06:37 40.6310 8.1610 83° East 571 657 36,000  Level FlightAware
06:38 40.6420 8.2970 84° East 572 658 36,000  Level FlightAware
06:38 40.6540 8.4550 84° East 573 659 36,000  Level FlightAware
06:39 40.6650 8.5930 84° East 574 661 36,000  Level FlightAware
06:40 40.6770 8.7520 84° East 573 659 36,000  Level FlightAware
06:40 40.6880 8.8890 84° East 572 658 36,000  Level FlightAware
06:41 40.6980 9.0300 85° East 572 658 36,000  Level FlightAware
06:42 40.7090 9.1840 85° East 570 656 36,000  Level FlightAware
06:43 40.7190 9.3210 84° East 570 656 36,000  Level FlightAware
06:43 40.7290 9.4610 85° East 568 654 36,000  Level FlightAware
06:44 40.7400 9.6140 85° East 562 647 36,000  Level FlightAware
06:45 40.7500 9.7510 84° East 557 641 36,000  Level FlightAware
06:45 40.7600 9.9020 85° East 556 640 36,000  Level FlightAware
06:46 40.7680 10.0140 85° East 555 639 36,000 120 Level FlightAware
06:49 40.6709 10.4853 105° East  Level FlightAware Approximate
06:49 40.8060 10.6010 105° East 558 642 36,500  Level FlightAware
06:50 40.8170 10.7730 85° East 552 635 37,000 120 Climbing FlightAware
06:52 40.7409 11.1031 107° East  Level Estimated
06:52 40.8450 11.2450 107° East 544 626 37,000  Level FlightAware
06:53 40.8540 11.4100 86° East 544 626 37,000  Level FlightAware
06:54 40.8640 11.5850 86° East 545 627 37,000  Level FlightAware
06:55 40.8350 11.7280 105° East 524 603 37,000  Level FlightAware
06:55 40.8000 11.8500 111° Southeast 518 596 37,000  Level FlightAware
06:56 40.7620 11.9700 113° Southeast 515 593 37,000  Level FlightAware
06:57 40.7260 12.0830 113° Southeast 516 594 37,000  Level FlightAware
06:57 40.6790 12.2340 112° Southeast 515 593 37,000  Level FlightAware
06:58 40.6410 12.3560 112° Southeast 515 593 37,000  Level FlightAware
06:59 40.6080 12.4590 113° Southeast 512 589 37,000  Level FlightAware
07:00 40.5630 12.6040 112° Southeast 512 589 37,000  Level FlightAware
07:00 40.5220 12.7320 113° Southeast 513 590 37,000  Level FlightAware
07:01 40.4830 12.8560 112° Southeast 512 589 37,000  Level FlightAware
07:02 40.4420 12.9840 113° Southeast 511 588 37,000  Level FlightAware
07:02 40.4080 13.0910 113° Southeast 510 587 37,000  Level FlightAware
07:03 40.3700 13.2100 113° Southeast 510 587 37,000  Level FlightAware
07:04 40.3270 13.3420 113° Southeast 511 588 37,000  Level FlightAware
07:04 40.2900 13.4560 113° Southeast 513 590 37,000  Level FlightAware
07:05 40.2490 13.5800 113° Southeast 514 592 37,000  Level FlightAware
07:06 40.2110 13.6950 113° Southeast 516 594 37,000  Level FlightAware
07:07 40.1730 13.8100 113° Southeast 517 595 37,000  Level FlightAware
07:07 40.1350 13.9240 114° Southeast 519 597 37,000  Level FlightAware
07:08 40.0900 14.0580 114° Southeast 520 598 37,000  Level FlightAware
07:09 40.0510 14.1740 114° Southeast 521 600 37,000  Level FlightAware
07:09 40.0090 14.3000 113° Southeast 522 601 37,000  Level FlightAware
07:10 39.9700 14.4150 114° Southeast 522 601 37,000  Level FlightAware
07:11 39.9240 14.5480 114° Southeast 521 600 37,000  Level FlightAware
07:11 39.8850 14.6620 114° Southeast 521 600 37,000  Level FlightAware
07:12 39.8470 14.7720 114° Southeast 520 598 37,000  Level FlightAware
07:13 39.8030 14.9000 114° Southeast 519 597 37,000  Level FlightAware
07:14 39.7640 15.0130 114° Southeast 518 596 37,000  Level FlightAware
07:14 39.7180 15.1440 115° Southeast 517 595 37,000  Level FlightAware
07:15 39.6660 15.2920 114° Southeast 515 593 37,000  Level FlightAware
07:16 39.6250 15.4100 114° Southeast 518 596 37,000  Level FlightAware
07:17 39.5820 15.5320 115° Southeast 515 593 37,000  Level FlightAware
07:18 39.4740 15.8320 115° Southeast 514 592 37,000  Level FlightAware
07:19 39.4340 15.9460 114° Southeast 514 592 37,000  Level FlightAware
07:20 39.4070 16.0330 112° Southeast 516 594 37,000  Level FlightAware
07:20 39.3750 16.1430 111° Southeast 516 594 37,000  Level FlightAware
07:22 39.2750 16.5290 108° East 519 597 37,000  Level FlightAware
07:23 39.2440 16.6440 109° East 521 600 37,000  Level FlightAware
07:24 39.2110 16.7630 110° East 520 598 37,000  Level FlightAware
07:26 39.1221 17.0799 110° East  Level FlightAware Approximate
07:27 39.0724 17.2556 110° East  Level FlightAware Approximate
07:27 39.0540 17.3360 110° East 521 600 37,000  Level FlightAware
07:28 39.0210 17.4550 110° East 520 598 37,000  Level FlightAware
07:29 38.9800 17.6040 109° East 520 598 37,000  Level FlightAware
07:29 38.9520 17.7020 110° East 519 597 37,000  Level FlightAware
07:30 38.9190 17.8200 110° East 518 596 37,000  Level FlightAware
07:31 38.8860 17.9410 109° East 516 594 37,000  Level FlightAware
07:31 38.8470 18.0760 110° East 516 594 37,000  Level FlightAware
07:32 38.8030 18.2330 110° East 517 595 37,000  Level FlightAware
07:33 38.7640 18.3690 110° East 517 595 37,000  Level FlightAware
07:34 38.7310 18.4830 110° East 517 595 37,000  Level FlightAware
07:34 38.6970 18.6000 110° East 518 596 37,000  Level FlightAware
07:35 38.6620 18.7190 111° Southeast 518 596 37,000  Level FlightAware
07:36 38.6310 18.8270 110° East 519 597 37,000  Level FlightAware
07:36 38.6040 18.9200 110° East 521 600 37,000  Level FlightAware
07:37 38.5600 19.0650 111° Southeast 37,000  Level FlightAware
07:38 38.5230 19.1900 111° Southeast 520 598 37,000  Level FlightAware
07:38 38.4920 19.2920 111° Southeast 520 598 37,000  Level FlightAware
07:39 38.4600 19.4000 111° Southeast 523 602 37,000  Level FlightAware
07:40 38.4250 19.5150 111° Southeast 523 602 37,000  Level FlightAware
07:41 38.3790 19.6660 111° Southeast 522 601 37,000  Level FlightAware
07:41 38.3500 19.7590 112° Southeast 522 601 37,000  Level FlightAware
07:42 38.3120 19.8830 111° Southeast 524 603 37,000  Level FlightAware
07:43 38.2690 20.0230 111° Southeast 524 603 37,000  Level FlightAware
07:44 38.2100 20.2120 112° Southeast 525 604 37,000  Level FlightAware
07:44 38.1750 20.3260 111° Southeast 525 604 37,000  Level FlightAware
07:45 38.1340 20.4540 112° Southeast 525 604 37,000  Level FlightAware
07:46 38.0990 20.5680 111° Southeast 526 605 37,000  Level FlightAware
07:46 38.0610 20.6910 111° Southeast 525 604 37,000  Level FlightAware
07:47 38.0180 20.8220 113° Southeast 524 603 37,000  Level FlightAware
07:48 37.9750 20.9580 112° Southeast 525 604 37,000  Level FlightAware
07:48 37.9550 21.0210 112° Southeast 525 604 37,000  Level FlightAware
07:49 37.9110 21.1560 112° Southeast 525 604 37,000  Level FlightAware
07:50 37.8750 21.2700 112° Southeast 526 605 37,000  Level FlightAware
07:51 37.8350 21.3930 112° Southeast 527 606 37,000  Level FlightAware
07:51 37.8010 21.4980 112° Southeast 529 609 37,000  Level FlightAware
07:52 37.7620 21.6170 112° Southeast 530 610 37,000  Level FlightAware
07:52 37.7310 21.7110 113° Southeast 530 610 37,000  Level FlightAware
07:53 37.6890 21.8420 112° Southeast 528 608 37,000  Level FlightAware
07:54 37.6470 21.9680 113° Southeast 525 604 37,000  Level FlightAware
07:55 37.6100 22.0820 112° Southeast 524 603 37,000  Level FlightAware
07:55 37.5690 22.2040 113° Southeast 521 600 37,000  Level FlightAware
07:56 37.5290 22.3230 113° Southeast 522 601 37,000  Level FlightAware
07:57 37.4920 22.4350 113° Southeast 523 602 37,000  Level FlightAware
07:57 37.4550 22.5450 113° Southeast 520 598 37,000  Level FlightAware
07:58 37.4130 22.6700 113° Southeast 518 596 37,000  Level FlightAware
07:59 37.3850 22.7550 112° Southeast 516 594 37,000  Level FlightAware
07:59 37.3470 22.8660 113° Southeast 515 593 37,000  Level FlightAware
08:00 37.3100 22.9750 113° Southeast 515 593 37,000  Level FlightAware
08:01 37.2720 23.0860 113° Southeast 515 593 37,000  Level FlightAware
08:01 37.2340 23.1960 113° Southeast 513 590 37,000  Level FlightAware
08:02 37.1970 23.3020 114° Southeast 511 588 37,000  Level FlightAware
08:03 37.1540 23.4230 114° Southeast 512 589 37,000  Level FlightAware
08:03 37.1170 23.5310 113° Southeast 512 589 37,000  Level FlightAware
08:04 37.0730 23.6570 114° Southeast 512 589 37,000  Level FlightAware
08:05 37.0340 23.7660 114° Southeast 511 588 37,000  Level FlightAware
08:05 36.9970 23.8740 113° Southeast 510 587 37,000  Level FlightAware
08:06 36.9550 23.9930 114° Southeast 510 587 37,000  Level FlightAware
08:07 36.9130 24.1130 114° Southeast 510 587 37,000  Level FlightAware
08:08 36.8730 24.2270 114° Southeast 510 587 37,000  Level FlightAware
08:08 36.8370 24.3320 113° Southeast 507 583 37,000  Level FlightAware
08:09 36.8050 24.4240 113° Southeast 505 581 37,000  Level FlightAware
08:09 36.7710 24.5190 114° Southeast 504 580 37,000  Level FlightAware
08:10 36.7290 24.6370 114° Southeast 504 580 37,000  Level FlightAware
08:11 36.6900 24.7450 114° Southeast 507 583 37,000  Level FlightAware
08:11 36.6620 24.8220 114° Southeast 508 585 37,000  Level FlightAware
08:12 36.6260 24.9180 115° Southeast 511 588 37,000  Level FlightAware
08:12 36.5930 25.0090 114° Southeast 511 588 37,000  Level FlightAware
08:13 36.5480 25.1330 114° Southeast 516 594 37,000  Level FlightAware
08:14 36.5130 25.2260 115° Southeast 519 597 37,000  Level FlightAware
08:14 36.4740 25.3340 114° Southeast 524 603 37,000  Level FlightAware
08:15 36.4270 25.4620 114° Southeast 527 606 37,000  Level FlightAware
08:16 36.3930 25.5520 115° Southeast 530 610 37,000  Level FlightAware
08:17 36.3440 25.6830 115° Southeast 531 611 37,000  Level FlightAware
08:17 36.2990 25.8040 115° Southeast 531 611 37,000  Level FlightAware
08:18 36.2620 25.9030 115° Southeast 531 611 37,000  Level FlightAware
08:18 36.2350 25.9730 116° Southeast 531 611 37,000  Level FlightAware
08:19 36.2000 26.0670 115° Southeast 531 611 37,000  Level FlightAware
08:20 36.1650 26.1610 115° Southeast 531 611 37,000  Level FlightAware
08:20 36.1290 26.2550 115° Southeast 531 611 37,000  Level FlightAware
08:21 36.0850 26.3720 115° Southeast 531 611 37,000  Level FlightAware
08:22 36.0590 26.4420 115° Southeast 531 611 37,000  Level FlightAware
08:22 36.0320 26.5120 115° Southeast 531 611 37,000  Level FlightAware
08:23 36.0060 26.5830 114° Southeast 531 611 37,000  Level FlightAware
08:23 35.9710 26.6760 115° Southeast 531 611 37,000  Level FlightAware
08:24 35.8660 26.9380 116° Southeast 539 620 37,000  Level FlightAware
08:25 35.8060 27.0950 115° Southeast 542 624 37,000  Level FlightAware
08:26 35.7700 27.1900 115° Southeast 542 624 37,000  Level FlightAware
08:27 35.7340 27.2850 115° Southeast 542 624 37,000  Level FlightAware
08:27 35.6980 27.3800 115° Southeast 542 624 37,000  Level FlightAware
08:28 35.6620 27.4750 115° Southeast 542 624 37,000  Level FlightAware
08:29 35.6160 27.5940 115° Southeast 542 624 37,000  Level FlightAware
08:29 35.5800 27.6890 115° Southeast 542 624 37,000  Level FlightAware
08:30 35.5440 27.7840 115° Southeast 542 624 37,000  Level FlightAware
08:31 35.5080 27.8790 115° Southeast 542 624 37,000  Level FlightAware
08:32 35.3730 28.1780 119° Southeast 554 638 37,000  Level FlightAware
08:32 35.3340 28.2730 117° Southeast 554 638 37,000  Level FlightAware
08:33 35.2990 28.3600 116° Southeast 554 638 37,000  Level FlightAware
08:33 35.2590 28.4580 117° Southeast 552 635 37,000  Level FlightAware
08:34 35.2120 28.5710 117° Southeast 548 631 37,000  Level FlightAware
08:35 35.1560 28.7090 116° Southeast 545 627 37,000  Level FlightAware
08:35 35.1090 28.8210 117° Southeast 542 624 37,000  Level FlightAware
08:37 35.0380 28.9960 116° Southeast 540 621 37,000  Level FlightAware
08:37 34.9830 29.1270 117° Southeast 540 621 37,000  Level FlightAware
08:38 34.9460 29.2210 116° Southeast 540 621 37,000  Level FlightAware
08:39 34.9080 29.3140 116° Southeast 540 621 37,000 600 Level FlightAware
08:40 34.8220 29.5060 119° Southeast 554 638 38,000 660 Climbing FlightAware
08:40 34.7820 29.6000 117° Southeast 557 641 38,000  Level FlightAware
08:41 34.7310 29.7210 117° Southeast 557 641 38,000  Level FlightAware
08:42 34.6520 29.9060 117° Southeast 554 638 38,000  Level FlightAware
08:43 34.6150 29.9930 117° Southeast 554 638 38,000  Level FlightAware
08:43 34.5570 30.1190 119° Southeast 543 625 38,000  Level FlightAware
08:44 34.4930 30.2470 121° Southeast 542 624 38,000 -300 Level FlightAware
08:45 34.4370 30.3630 120° Southeast 535 616 37,600 -780 Descending FlightAware
08:46 34.3880 30.4630 121° Southeast 529 609 37,000 -480 Descending FlightAware
08:46 34.3290 30.5830 121° Southeast 536 617 37,000  Level FlightAware
08:47 34.2790 30.6860 120° Southeast 537 618 37,000  Level FlightAware
08:48 34.2280 30.7890 121° Southeast 537 618 37,000  Level FlightAware
08:48 34.1710 30.9050 121° Southeast 537 618 37,000  Level FlightAware
08:49 34.1190 31.0110 121° Southeast 536 617 37,000  Level FlightAware
08:50 34.0800 31.0910 120° Southeast 534 615 37,000 -120 Level FlightAware
08:50 34.0360 31.1800 121° Southeast 530 610 36,900 -720 Descending FlightAware
08:51 33.9820 31.2900 121° Southeast 523 602 36,100 -1,320 Descending FlightAware
08:52 33.9240 31.4070 121° Southeast 533 613 35,000 -780 Descending FlightAware
08:52 33.8670 31.5220 121° Southeast 535 616 35,000  Level FlightAware
08:54 33.7460 31.7620 121° Southeast 534 615 35,000  Level FlightAware
08:55 33.6490 31.9530 121° Southeast 532 612 35,000  Level FlightAware
08:56 33.5670 32.1170 121° Southeast 532 612 35,000  Level FlightAware
08:57 33.5310 32.1870 122° Southeast 530 610 35,000  Level FlightAware
08:58 33.4410 32.3650 121° Southeast 532 612 35,000  Level FlightAware
08:59 33.3790 32.4880 121° Southeast 534 615 35,000 -120 Level FlightAware
09:00 33.3210 32.6000 122° Southeast 531 611 34,900 -480 Descending FlightAware
09:00 33.2690 32.7020 121° Southeast 511 588 34,400 -1,140 Descending FlightAware
09:01 33.2230 32.7910 122° Southeast 500 575 33,400 -1,980 Descending FlightAware
09:02 33.1680 32.8960 122° Southeast 496 571 31,800 -2,280 Descending FlightAware
09:02 33.1250 32.9810 121° Southeast 483 556 30,400 -2,100 Descending FlightAware
09:03 33.0750 33.0790 121° Southeast 475 547 29,000 -2,220 Descending FlightAware
09:04 33.0310 33.1660 121° Southeast 470 541 27,500 -2,280 Descending FlightAware
09:04 32.9850 33.2560 121° Southeast 455 524 26,000 -2,100 Descending FlightAware
09:05 32.9440 33.3380 121° Southeast 442 509 24,700 -1,920 Descending FlightAware
09:05 32.9250 33.4230 105° East 425 489 23,600 -1,800 Descending FlightAware
09:06 32.9190 33.4920 96° East 412 474 22,800 -1,620 Descending FlightAware
09:07 32.9130 33.5670 95° East 402 463 21,900 -1,560 Descending FlightAware
09:08 32.8990 33.6960 97° East 381 438 20,400 -1,440 Descending FlightAware
09:08 32.8910 33.7770 97° East 367 422 19,500 -1,500 Descending FlightAware
09:09 32.8790 33.8350 104° East 365 420 18,700 -1,500 Descending FlightAware
09:09 32.8420 33.8900 129° Southeast 360 414 17,900 -1,380 Descending FlightAware
09:10 32.7770 33.9480 143° Southeast 348 400 16,800 -1,380 Descending FlightAware
09:11 32.7330 33.9870 143° Southeast 340 391 16,000 -1,380 Descending FlightAware
09:11 32.6760 34.0360 144° Southeast 330 380 15,000 -1,380 Descending FlightAware
09:12 32.6240 34.0860 141° Southeast 320 368 14,000 -1,380 Descending FlightAware
09:13 32.5760 34.1410 136° Southeast 307 353 13,000 -1,320 Descending FlightAware
09:14 32.5330 34.1860 139° Southeast 299 344 12,200 -1,200 Descending FlightAware
09:14 32.4900 34.2300 139° Southeast 302 348 11,400 -1,200 Descending FlightAware
09:15 32.4460 34.2750 139° Southeast 306 352 10,500 -1,200 Descending FlightAware
09:16 32.4150 34.3080 138° Southeast 300 345 9,900 -1,200 Descending FlightAware
09:16 32.3870 34.3380 138° Southeast 293 337 9,400 -1,200 Descending FlightAware
09:16 32.3560 34.3710 138° Southeast 286 329 8,800 -1,080 Descending FlightAware
09:17 32.3430 34.3850 138° Southeast 281 323 8,600 -900 Descending FlightAware
09:17 32.3100 34.4200 138° Southeast 276 318 8,000 -1,020 Descending FlightAware
09:18 32.2870 34.4450 137° Southeast 271 312 7,500 -720 Descending FlightAware
09:18 32.2560 34.4770 139° Southeast 269 310 7,300 -1,020 Descending FlightAware
09:19 32.2760 34.4560 318° Northwest 267 307 6,600 -1,200 Descending FlightAware
09:20 32.1820 34.6180 124° Southeast 266 306 5,100 -900 Descending FlightAware
09:21 32.1650 34.6500 122° Southeast 267 307 4,900 -180 Descending FlightAware
09:21 32.1360 34.7030 123° Southeast 261 300 4,900  Level FlightAware
09:22 32.1190 34.7330 124° Southeast 262 302 4,900  Level FlightAware
09:22 32.1150 34.7410 121° Southeast 262 302 4,900  Level FlightAware
09:22 32.0960 34.7740 124° Southeast 260 299 4,900  Level FlightAware
09:23 32.0730 34.8080 129° Southeast 240 276 4,900 -120 Level FlightAware
09:23 32.0600 34.8220 138° Southeast 219 252 4,800 -360 Descending FlightAware
09:24 32.0380 34.8470 136° Southeast 194 223 4,600 -600 Descending FlightAware
09:24 32.0240 34.8630 136° Southeast 180 207 4,300 -960 Descending FlightAware
09:24 32.0100 34.8790 136° Southeast 181 208 3,900 -1,080 Descending FlightAware
09:25 32.0010 34.8890 137° Southeast 182 209 3,600 -1,440 Descending FlightAware
09:25 31.9950 34.9010 121° Southeast 176 203 3,200 -1,200 Descending FlightAware
09:25 31.9970 34.9290 85° East 163 188 2,800 -840 Descending FlightAware
09:26 32.0030 34.9520 73° East 164 189 2,400 -840 Descending FlightAware
09:26 32.0090 34.9780 75° East 163 188 2,000 -480 Descending FlightAware
09:27 32.0160 34.9960 65° Northeast 163 188 2,000  Level FlightAware
09:30 32.0095 34.8769 266° West  Level Estimated